Waarnemingen

Advertentie
Mijn weer
Catania/Fontanarossa, Italië (16460): temperatuur & dauwpunt: 10.01.2018 10:00:00 - 16.01.2018 10:00:00 (CET)Catania/Fontanarossa, Italië (16460): windsnelheid: 10.01.2018 10:00:00 - 16.01.2018 10:00:00 (CET)Catania/Fontanarossa, Italië (16460): windrichting: 10.01.2018 10:00:00 - 16.01.2018 10:00:00 (CET)Catania/Fontanarossa, Italië (16460): luchtdruk: 10.01.2018 10:00:00 - 16.01.2018 10:00:00 (CET)Catania/Fontanarossa, Italië (16460): zicht: 10.01.2018 10:00:00 - 16.01.2018 10:00:00 (CET)Catania/Fontanarossa, Italië (16460): neerslag: 10.01.2018 10:00:00 - 16.01.2018 10:00:00 (CET)
Datum & Tijd tt [°C] td [°C] ff [km/u] ff [kn] dd ppp [hPa] vv [km] rr [mm]
16.01.2018 10:00:00 - - - - - - - -
16.01.2018 09:00:00 10,0 7,0 8 4 WZW - 10 -
16.01.2018 08:00:00 7,0 5,0 11 6 W - 10 -
16.01.2018 07:00:00 5,3 4,0 15 8 W 1023,3 10 -
16.01.2018 06:00:00 8,0 5,0 22 12 W - 10 -
16.01.2018 05:00:00 7,0 5,0 16 9 W - 10 -
16.01.2018 04:00:00 7,3 5,5 16 9 W 1023,5 10 0,0
16.01.2018 03:00:00 7,0 6,0 15 8 W - 10 -
16.01.2018 02:00:00 9,0 6,0 16 9 W - 10 -
16.01.2018 01:00:00 8,8 6,6 16 9 W 1024,0 10 -
16.01.2018 00:00:00 9,0 7,0 15 8 W - 10 -
15.01.2018 23:00:00 9,0 7,0 15 8 W - 10 -
15.01.2018 22:00:00 8,2 6,4 13 7 W 1024,4 10 0,0
15.01.2018 21:00:00 9,0 8,0 4 2 - - 10 -
15.01.2018 20:00:00 11,0 9,0 5 3 NW - 10 -
15.01.2018 19:00:00 9,5 7,6 2 1 - 1023,3 10 -
15.01.2018 18:00:00 12,0 8,0 11 6 W - 10 -
15.01.2018 17:00:00 14,0 9,0 11 6 W - 10 -
15.01.2018 16:00:00 14,9 8,7 13 7 W 1022,3 10 0,0
15.01.2018 15:00:00 16,0 8,0 21 11 W - 10 -
15.01.2018 14:00:00 16,0 9,0 16 9 W - 10 -
15.01.2018 13:00:00 14,7 8,8 16 9 WZW 1023,1 10 -
15.01.2018 12:00:00 13,0 9,0 13 7 WZW - 10 -
15.01.2018 11:00:00 12,0 9,0 15 8 ZW - 10 -
15.01.2018 10:00:00 11,4 9,1 11 6 WZW 1024,2 10 0,0
15.01.2018 09:00:00 8,0 7,0 13 7 WZW - 10 -
15.01.2018 08:00:00 6,0 6,0 8 4 ZW - 10 -
15.01.2018 07:00:00 5,3 4,8 9 5 WZW 1023,3 10 -
15.01.2018 06:00:00 4,0 4,0 8 4 WZW - 10 -
15.01.2018 05:00:00 5,0 4,0 11 6 ZW - 10 -
15.01.2018 04:00:00 3,9 3,4 5 3 W 1023,3 10 0,0
15.01.2018 03:00:00 4,0 4,0 8 4 WZW - 10 -
15.01.2018 02:00:00 4,0 4,0 9 5 WZW - 10 -
15.01.2018 01:00:00 4,6 3,9 9 5 WZW 1024,0 10 -
15.01.2018 00:00:00 5,0 4,0 9 5 W - 10 -
14.01.2018 23:00:00 7,0 6,0 5 3 ZW - 10 -
14.01.2018 22:00:00 7,2 6,0 9 5 Z 1023,8 10 0,0
14.01.2018 21:00:00 8,0 6,0 9 5 ZW - 10 -
14.01.2018 20:00:00 10,0 7,0 9 5 W - 10 -
14.01.2018 19:00:00 10,5 6,8 9 5 W 1022,8 10 -
14.01.2018 18:00:00 12,0 8,0 8 4 W - 10 -
14.01.2018 17:00:00 14,0 7,0 8 4 W - 10 -
14.01.2018 16:00:00 14,9 6,0 21 11 W 1021,3 10 0,0
14.01.2018 15:00:00 15,0 6,0 11 6 W - 10 -
14.01.2018 14:00:00 16,0 5,0 18 10 W - 10 -
14.01.2018 13:00:00 15,9 5,9 15 8 W 1021,1 10 -
14.01.2018 12:00:00 15,0 6,0 16 9 W - 10 -
14.01.2018 11:00:00 13,0 7,0 16 9 W - 10 -
14.01.2018 10:00:00 12,6 6,5 21 11 WZW 1022,1 10 0,0
14.01.2018 09:00:00 8,0 6,0 8 4 WZW - 10 -
14.01.2018 08:00:00 6,0 4,0 5 3 ZW - 10 -
14.01.2018 07:00:00 5,8 4,0 15 8 WZW 1020,7 10 -
14.01.2018 06:00:00 5,0 4,0 16 9 W - 10 -
14.01.2018 05:00:00 6,0 4,0 15 8 WZW - 10 -
14.01.2018 04:00:00 5,3 3,8 15 8 WZW 1019,9 10 0,0
14.01.2018 03:00:00 - - - - - - - -
14.01.2018 02:00:00 7,0 5,0 16 9 W - 10 -
14.01.2018 01:00:00 6,9 5,0 13 7 W 1019,6 10 -
14.01.2018 00:00:00 7,0 5,0 9 5 WZW - 10 -
13.01.2018 23:00:00 7,0 5,0 9 5 WNW - 10 -
13.01.2018 22:00:00 6,7 4,5 9 5 WZW 1019,1 10 0,0
13.01.2018 21:00:00 9,0 5,0 9 5 ZW - 10 -
13.01.2018 20:00:00 9,0 5,0 11 6 WZW - 10 -
13.01.2018 19:00:00 12,4 5,9 13 7 Z 1017,4 10 -
13.01.2018 18:00:00 13,0 7,0 8 4 Z - 10 -
13.01.2018 17:00:00 14,0 7,0 11 6 O - 10 -
13.01.2018 16:00:00 15,5 7,2 15 8 ZZO 1014,6 10 0,0
13.01.2018 15:00:00 16,0 6,0 13 7 Z - 10 -
13.01.2018 14:00:00 17,0 6,0 9 5 ZO - 10 -
13.01.2018 13:00:00 16,3 5,2 9 5 ZZO 1014,3 10 -
13.01.2018 12:00:00 15,0 7,0 8 4 ZZO - 10 -
13.01.2018 11:00:00 14,0 7,0 5 3 Z - 10 -
13.01.2018 10:00:00 10,7 7,2 11 6 ZW 1014,1 10 0,0
13.01.2018 09:00:00 9,0 6,0 11 6 WZW - 10 -
13.01.2018 08:00:00 6,0 5,0 13 7 W - 10 -
13.01.2018 07:00:00 6,9 5,3 8 4 WZW 1012,8 10 -
13.01.2018 06:00:00 7,0 6,0 5 3 ZZW - 10 -
13.01.2018 05:00:00 - - - - - - - -
13.01.2018 04:00:00 7,3 5,4 13 7 WZW 1011,8 10 0,0
13.01.2018 03:00:00 6,0 5,0 9 5 W - 10 -
13.01.2018 02:00:00 5,0 4,0 11 6 ZW - 10 -
13.01.2018 01:00:00 4,9 4,1 9 5 ZW 1011,5 10 -
13.01.2018 00:00:00 5,0 4,0 9 5 WZW - 10 -
12.01.2018 23:00:00 5,0 4,0 5 3 WZW - 10 -
12.01.2018 22:00:00 5,8 4,9 11 6 W 1011,2 10 0,0
12.01.2018 21:00:00 7,0 6,0 11 6 WZW - 10 -
12.01.2018 20:00:00 7,0 6,0 9 5 W - 10 -
12.01.2018 19:00:00 8,2 6,5 11 6 ZW 1010,4 10 -
12.01.2018 18:00:00 9,0 6,0 13 7 W - 10 -
12.01.2018 17:00:00 12,0 6,0 8 4 W - 10 -
12.01.2018 16:00:00 14,1 6,0 15 8 WNW 1008,8 10 0,0
12.01.2018 15:00:00 13,0 7,0 16 9 W - 10 -
12.01.2018 14:00:00 15,0 8,0 8 4 ZZW - 10 -
12.01.2018 13:00:00 14,6 6,9 11 6 W 1010,0 10 -
12.01.2018 12:00:00 13,0 9,0 9 5 W - 10 -
12.01.2018 11:00:00 10,0 9,0 9 5 ZW - 10 -
12.01.2018 10:00:00 9,8 7,6 8 4 WNW 1012,2 10 0,0
12.01.2018 09:00:00 7,0 6,0 5 3 W - 10 -
12.01.2018 08:00:00 6,0 5,0 9 5 W - 10 -
12.01.2018 07:00:00 5,3 4,9 9 5 ZW 1011,9 8 -
12.01.2018 06:00:00 5,0 5,0 11 6 ZW - 8 -
12.01.2018 05:00:00 6,0 5,0 13 7 WZW - 10 -
12.01.2018 04:00:00 7,4 6,3 13 7 W 1011,6 10 0,0
12.01.2018 03:00:00 8,0 7,0 16 9 W - 10 -
12.01.2018 02:00:00 7,0 7,0 9 5 WZW - 10 -
12.01.2018 01:00:00 9,2 8,0 13 7 W 1012,1 10 -
12.01.2018 00:00:00 9,0 8,0 13 7 W - 10 -
11.01.2018 23:00:00 10,0 9,0 15 8 W - 10 -
11.01.2018 22:00:00 10,4 9,3 16 9 WZW 1012,3 10 0,0
11.01.2018 21:00:00 11,0 10,0 15 8 W - 10 -
11.01.2018 20:00:00 12,0 10,0 18 10 W - 8 -
11.01.2018 19:00:00 12,6 9,4 5 3 W 1012,1 10 -
11.01.2018 18:00:00 13,0 9,0 9 5 WZW - 10 -
11.01.2018 17:00:00 14,0 9,0 13 7 W - 10 -
11.01.2018 16:00:00 14,8 8,5 26 14 WZW 1011,7 10 0,0
11.01.2018 15:00:00 17,0 8,0 24 13 WZW - 10 -
11.01.2018 14:00:00 17,0 9,0 21 11 W - 10 -
11.01.2018 13:00:00 16,1 9,1 24 13 W 1012,3 10 -
11.01.2018 12:00:00 16,0 7,0 22 12 W - 10 -
11.01.2018 11:00:00 14,0 7,0 16 9 W - 10 -
11.01.2018 10:00:00 12,2 6,9 18 10 WZW 1014,6 10 0,0
11.01.2018 09:00:00 10,0 6,0 9 5 W - 10 -
11.01.2018 08:00:00 8,0 5,0 13 7 W - 10 -
11.01.2018 07:00:00 8,9 5,5 15 8 WZW 1014,3 10 -
11.01.2018 06:00:00 9,0 6,0 8 4 WZW - 10 -
11.01.2018 05:00:00 11,0 5,0 5 3 - - 10 -
11.01.2018 04:00:00 10,5 5,4 11 6 NW 1013,6 10 0,0
11.01.2018 03:00:00 9,0 6,0 13 7 W - 10 -
11.01.2018 02:00:00 9,0 6,0 15 8 ZW - 10 -
11.01.2018 01:00:00 8,2 5,7 13 7 WZW 1013,9 10 -
11.01.2018 00:00:00 8,0 6,0 5 3 W - 10 -
10.01.2018 23:00:00 10,0 6,0 11 6 WZW - 10 -
10.01.2018 22:00:00 10,3 5,5 9 5 W 1014,2 10 0,0
10.01.2018 21:00:00 9,0 6,0 11 6 W - 10 -
10.01.2018 20:00:00 9,0 6,0 13 7 W - 10 -
10.01.2018 19:00:00 9,3 7,4 8 4 W 1013,1 10 -
10.01.2018 18:00:00 13,0 10,0 8 4 W - 10 -
10.01.2018 17:00:00 14,0 11,0 5 3 NNO - 10 -
10.01.2018 16:00:00 13,8 9,7 5 3 W 1012,2 10 0,0
10.01.2018 15:00:00 14,0 10,0 13 7 ZZW - 10 -
10.01.2018 14:00:00 13,0 10,0 16 9 WZW - 10 -
10.01.2018 13:00:00 11,6 10,4 8 4 ZZW 1013,2 10 -
10.01.2018 12:00:00 11,0 10,0 21 11 WZW - 10 -
10.01.2018 11:00:00 11,0 9,0 13 7 ZZW - 7 -
10.01.2018 10:00:00 11,3 9,7 22 12 WZW 1015,0 8 0,0

tt = temperatuur
td = dauwpunt
ff = windsnelheid
dd = windrichting
ppp = luchtdruk
vv = zicht
rr = neerslag

Weerstations in de omgeving